Weather in Krasnaya Rechka

Russia / Zabaykalsky Krai     51°38′17″N   113°03′30″E
temp.,
°C
wind,
m/s
gust,
m/s
humid.,
%
clouds,
%
prec.,
mm/h
press.,
hPa
HPBL,
m
20 june, sun
sun2000:00+9nnw2397100 0.1 100565
03:00+9nnw229876 0.3 100638
06:00+10n2497100 0.1 1007147
09:00+10n149438 0.1 1008212
12:00+15ene347161 0.8 1008922
15:00+18ese345986 1.6 10071551
18:00+19ene12566 0.6 10071155
21:00+14ese227557 0.7 100930
21 june, mon
mon2100:00+12ene118522 0.0 101012
03:00+9e00940 0.0 101110
06:00+9n119557 0.0 101210
09:00+16e236441 0.0 1011613
12:00+22se3443100 0.0 10091799
15:00+24se4434100 0.0 10062618
18:00+23se564059 0.0 10061539
21:00+18se386053 0.0 1007327
22 june, tue
tue2200:00+13ese118478 0.1 100912
03:00+11ne119237 0.9 100911
06:00+11ese009566 0.9 101010
09:00+16ese12755 1.0 1009402
12:00+24sse23421 0.0 10071334
15:00+29ese112824 0.0 10052775
18:00+23sse2545100 0.0 1006335
21:00+16se248738 0.8 100883
23 june, wed
wed2300:00+14nne11895 0.0 100912
03:00+14sse1184100 0.1 100811
06:00+13ssw1189100 0.0 100927
09:00+20ese015997 0.0 1009441
12:00+26sse114014 0.0 10071256
15:00+29ese113295 0.0 10052113
18:00+25ssw454699 0.1 10051005
21:00+15w2695100 8.4 1009212
24 june, thu
thu2400:00+15sse2297100 0.3 100934
03:00+14ssw119794 0.4 100926
06:00+13ene1196100 0.0 100811
09:00+17ese1185100 0.0 1008258
12:00+23sse345196 0.0 1006983
15:00+27s3438100 0.0 10031645
18:00+26s56375 0.0 10031350
21:00+18sse2380100 0.2 100460